{"data":{"norad_id":58939,"intl_designator":"2024-027J","name":"STARLINK-31372","alt_names":[],"object_type":"PAYLOAD","status":"ACTIVE","operator":null,"country":"US","launch_date":"2024-02-10","launch_site_code":"AFWTR","launch_vehicle":null,"mission":null,"orbit_class":"UNKNOWN","rcs_meters":null,"size_class":null,"mass_kg":null,"dimensions":null,"purposes":["comms"],"wikipedia_slug":null,"has_3d_model":false,"image_url":null,"decayed_at":null,"tle_current":{"epoch":"2026-05-25T03:53:10.648320Z","epoch_age_seconds":55021,"freshness":"FRESH","line1":"1 58939U 24027J   26145.16192880  .00001309  00000+0  56333-4 0  9998","line2":"2 58939  53.1619 314.6245 0001138  79.2033 280.9095 15.30195053129033","mean_motion":15.30195053,"eccentricity":0.0001138,"inclination_deg":53.1619,"raan_deg":314.6245,"arg_perigee_deg":79.2033,"mean_anomaly_deg":280.9095,"bstar":5.6333e-5,"rev_number":12903,"period_min":94.105649941609,"perigee_km":474.44992716299,"apogee_km":476.00975345584,"semimajor_km":6853.3668403094,"source":"CELESTRAK","updated_at":"2026-05-25T13:38:18.789764Z"}}}